Location: Arthurs Seat
(13.1500°N, 59.6000°W)
Time: 15:48:26
(UTC+00:00)

Cosmos 1553 Rocket - Pass Details

Date: 25 August 2019
Orbit: 941 x 1008 km, 82.9° (Epoch: 17 October)

Event Time Altitude Azimuth Distance (km) Brightness Sun altitude
Rises 23:08:28 0° 173° (S) 3,629 6.8 -13.8°
Reaches altitude 10° 23:11:00 10° 168° (SSE) 2,693 6.1 -14.4°
Maximum altitude 23:17:00 55° 92° (E) 1,155 4.0 -15.8°
Drops below altitude 10° 23:23:06 10° 16° (NNE) 2,740 6.4 -17.2°
Sets 23:25:41 0° 12° (NNE) 3,698 7.1 -17.8°
